Location: Capannuccia
(43.7000°N, 11.3000°E)
Time: 22:54:37
(UTC+00:00)

Envisat - Pass Details

Date: 06 August 2021
Orbit: 764 x 766 km, 98.2° (Epoch: 17 September)

Event Time Altitude Azimuth Distance (km) Brightness Sun altitude
Rises 03:18:17 0° 30° (NNE) 3,241 7.5 -8.9°
Reaches altitude 10° 03:21:26 10° 50° (NE) 2,309 7.2 -8.4°
Maximum altitude 03:24:40 17° 90° (E) 1,872 5.9 -7.9°
Drops below altitude 10° 03:27:53 10° 130° (SE) 2,297 5.7 -7.4°
Sets 03:31:00 0° 150° (SSE) 3,217 6.2 -7.0°
